Forks, WA

12:08 PM PST on December 08, 2016 (GMT -0800)
Quillayute

Weather History for KUIL - January, 2013

Change the Weather History Date:

Thursday, January 10, 2013

  Actual Average Record
Temperature  
Mean Temperature 37 °F 41 °F  
Max Temperature 46 °F 47 °F 57 °F (1986)
Min Temperature 27 °F 36 °F 18 °F (1993)
Degree Days  
Heating Degree Days 28 24  
Month to date heating degree days 240  
Since 1 July heating degree days 2718  
Cooling Degree Days 0 0  
Month to date cooling degree days 0  
Year to date cooling degree days 0  
Moisture  
Dew Point 32 °F    
Average Humidity 92    
Maximum Humidity 100    
Minimum Humidity 65    
Precipitation  
Precipitation T in 0.50 in 2.74 in (2014)
Month to date precipitation 4.77  
Year to date precipitation 4.77  
Sea Level Pressure  
Sea Level Pressure 30.07 in    
Wind  
Wind Speed 2 mph (ENE)    
Max Wind Speed 9 mph    
Max Gust Speed 12 mph    
Visibility 4 miles    
Events Fog    
T = Trace of Precipitation, MM = Missing Value Source: NWS Daily Summary

Daily Weather History Graph

Daily Weather History Graph

Search for Another Location

Airport or City:

Trip Planner

Search our weather history database for the weather conditions in past years. The results will help you decide how hot, cold, wet, or windy it might be!

Date:

Astronomy

Jan. 10, 2013 Rise Set
Actual Time 8:05 AM PST 4:46 PM PST
Civil Twilight 7:30 AM PST 5:22 PM PST
Nautical Twilight 6:51 AM PST 6:01 PM PST
Astronomical Twilight 6:13 AM PST 6:38 PM PST
Moon 6:50 AM PST (1/10) 4:02 PM PST (1/10)
Length of Visible Light 9h 52m
Length of Day
8h 41m
Waning Crescent, 1% of the Moon is Illuminated
Jan 10
Waning Crescent
Jan 11
New
Jan 18
First Quarter
Jan 26
Full
Feb 3
Last Quarter

Hourly Weather History & Observations

Time (PST) Temp. Windchill Dew Point Humidity Pressure Visibility Wind Dir Wind Speed Gust Speed Precip Events Conditions
12:53 AM 35.1 °F - 34.0 °F 96% 29.93 in 5.0 mi Calm Calm - 0.00 in   Overcast
2:10 AM 33.8 °F 30.8 °F 33.8 °F 100% 29.95 in 6.0 mi ENE 3.5 mph - N/A   Partly Cloudy
2:53 AM 34.0 °F 31.0 °F 33.1 °F 96% 29.97 in 6.0 mi East 3.5 mph - N/A   Overcast
3:14 AM 33.8 °F - 33.8 °F 100% 29.97 in 6.0 mi Calm Calm - N/A   Overcast
3:53 AM 34.0 °F - 33.1 °F 96% 29.98 in 6.0 mi Calm Calm - N/A   Overcast
4:53 AM 33.1 °F 30.0 °F 33.1 °F 100% 29.99 in 5.0 mi ENE 3.5 mph - N/A   Overcast
5:53 AM 33.1 °F - 32.0 °F 96% 30.01 in 6.0 mi Calm Calm - N/A   Overcast
6:53 AM 33.1 °F - 32.0 °F 96% 30.04 in 5.0 mi Calm Calm - N/A   Overcast
7:20 AM 32.0 °F - 30.2 °F 93% 30.04 in 6.0 mi Calm Calm - N/A   Scattered Clouds
7:27 AM 32.0 °F - 30.2 °F 93% 30.04 in 6.0 mi Calm Calm - N/A   Mostly Cloudy
7:53 AM 32.0 °F - 30.9 °F 96% 30.06 in 5.0 mi Calm Calm - N/A   Overcast
8:53 AM 34.0 °F - 33.1 °F 96% 30.08 in 4.0 mi Calm Calm - N/A   Mostly Cloudy
9:53 AM 34.0 °F - 33.1 °F 96% 30.09 in 4.0 mi Calm Calm - N/A   Overcast
10:53 AM 37.0 °F - 36.0 °F 96% 30.10 in 5.0 mi Calm Calm - N/A   Mostly Cloudy
11:01 AM 37.4 °F 34.9 °F 35.6 °F 93% 30.09 in 5.0 mi ESE 3.5 mph - N/A   Scattered Clouds
11:53 AM 41.0 °F - 37.0 °F 86% 30.09 in 5.0 mi Calm Calm - N/A   Mostly Cloudy
12:53 PM 43.0 °F 41.3 °F 37.9 °F 82% 30.06 in 4.0 mi SE 3.5 mph - N/A   Haze
1:07 PM 44.6 °F 43.1 °F 37.4 °F 76% 30.06 in 5.0 mi Variable 3.5 mph - N/A   Haze
1:19 PM 44.6 °F - 37.4 °F 76% 30.06 in 5.0 mi Calm Calm - N/A   Haze
1:35 PM 42.8 °F - 37.4 °F 81% 30.06 in 4.0 mi Calm Calm - N/A   Haze
1:53 PM 43.0 °F - 37.0 °F 80% 30.07 in 4.0 mi Calm Calm - N/A   Haze
2:40 PM 44.6 °F 40.7 °F 37.4 °F 76% 30.07 in 5.0 mi NW 6.9 mph - N/A   Haze
2:53 PM 43.0 °F 40.3 °F 36.0 °F 76% 30.08 in 4.0 mi West 4.6 mph - N/A   Haze
3:53 PM 43.0 °F 41.3 °F 35.1 °F 74% 30.08 in 4.0 mi NW 3.5 mph - N/A   Haze
4:53 PM 37.9 °F 35.5 °F 35.1 °F 89% 30.09 in 4.0 mi North 3.5 mph - N/A   Clear
5:53 PM 35.1 °F 30.1 °F 33.1 °F 92% 30.09 in 6.0 mi North 5.8 mph - N/A   Clear
6:53 PM 33.1 °F 28.7 °F 32.0 °F 96% 30.10 in 5.0 mi NNE 4.6 mph - N/A   Clear
7:53 PM 30.9 °F 27.5 °F 30.0 °F 96% 30.11 in 5.0 mi East 3.5 mph - N/A   Clear
8:45 PM 30.2 °F - 30.2 °F 100% 30.11 in 2.5 mi Calm Calm - N/A   Partly Cloudy
8:48 PM 30.2 °F - 30.2 °F 100% 30.11 in 1.0 mi Calm Calm - N/A   Mist
8:53 PM 30.0 °F - 30.0 °F 100% 30.12 in 0.2 mi Calm Calm - N/A Fog Light Freezing Fog
9:53 PM 28.0 °F - 28.0 °F 100% 30.13 in 0.2 mi Calm Calm - N/A Fog Light Freezing Fog
10:12 PM 28.4 °F 24.6 °F 26.6 °F 93% 30.12 in 1.0 mi ENE 3.5 mph - N/A   Mist
10:14 PM 28.4 °F 24.6 °F 28.4 °F 100% 30.12 in 1.8 mi ENE 3.5 mph - N/A   Scattered Clouds
10:16 PM 28.4 °F - 28.4 °F 100% 30.12 in 3.0 mi Calm Calm - N/A   Scattered Clouds
10:22 PM 28.4 °F - 28.4 °F 100% 30.12 in 1.5 mi Calm Calm - N/A   Partly Cloudy
10:25 PM 28.4 °F 24.6 °F 28.4 °F 100% 30.12 in 0.8 mi ESE 3.5 mph - N/A   Mist
10:49 PM 28.4 °F 24.6 °F 28.4 °F 100% 30.12 in 1.5 mi East 3.5 mph - N/A   Scattered Clouds
10:51 PM 28.4 °F 24.6 °F 28.4 °F 100% 30.13 in 3.0 mi East 3.5 mph - N/A   Scattered Clouds
10:53 PM 28.9 °F 23.9 °F 28.0 °F 96% 30.14 in 4.0 mi ENE 4.6 mph - N/A   Scattered Clouds
11:53 PM 28.0 °F - 26.1 °F 92% 30.14 in 6.0 mi Calm Calm - N/A   Clear